Volver al catálogo

ARICA 2

ActivoRadioaficionadoSSO
NORAD 68796·PAYLOAD·🇯🇵 Japan

Lanzado Apr 23, 2026 desde Rocket Lab Launch Complex 1

Loading…

Próximos Pases (próximas 24 horas)

TLE

ActualizadoSource: AMSAT

Época: Sep 14, 2026, 05:34 UTC

1 68796U 26088E   26257.23254768  .00004072  00000-0  26054-3 0  9992
2 68796  97.5188  44.6937 0016472 130.4520 229.8149 15.09031668 21720

Sigue ARICA 2 en tiempo real con AllMySat

Download on the App Store